Weather History for Juliana Airport, St. Martin

Change the Weather History Date:

Wednesday, November 20, 2013

  Actual Average Record
Temperature  
Mean Temperature 80 °F -  
Max Temperature 85 °F 83 °F 87 °F (2001)
Min Temperature 75 °F 73 °F 73 °F (2003)
Cooling Degree Days 15    
Growing Degree Days 30 (Base 50)    
Moisture  
Dew Point 72 °F    
Average Humidity 75    
Maximum Humidity 89    
Minimum Humidity 59    
Precipitation  
Precipitation 0.24 in 0.13 in - ()
Sea Level Pressure  
Sea Level Pressure 29.96 in    
Wind  
Wind Speed 6 mph ()    
Max Wind Speed 13 mph    
Max Gust Speed -    
Visibility 6.9 miles    
Events Rain , Tornado    
Averages and records for this station are not official NWS values.
T = Trace of Precipitation, MM = Missing Value Source: Averaged Metar Reports

Daily Weather History Graph

Daily Weather History Graph

Search for Another Location

Airport:

Trip Planner

Search our weather history database for the weather conditions in past years. The results will help you decide how hot, cold, wet, or windy it might be!

Date:

Astronomy

Nov. 20, 2013 Rise Set
Actual Time 6:21 AM AST 5:34 PM AST
Civil Twilight 5:58 AM AST 5:57 PM AST
Nautical Twilight 5:31 AM AST 6:24 PM AST
Astronomical Twilight 5:05 AM AST 6:50 PM AST
Moon 8:13 PM AST (11/20) 8:42 AM AST (11/20)
Length of Visible Light 11h 59m
Length of Day
11h 13m
Waning Gibbous, 91% of the Moon is Illuminated
Nov 20
Waning Gibbous
Nov 25
Last Quarter
Dec 2
New
Dec 9
First Quarter
Dec 17
Full

Hourly Weather History & Observations

Time (AST) Temp. Heat Index Dew Point Humidity Pressure Visibility Wind Dir Wind Speed Gust Speed Precip Events Conditions
12:00 AM 80.6 °F 83.9 °F 69.8 °F 70% 29.92 in 6.2 mi NE 5.8 mph - N/A   Partly Cloudy
1:00 AM 78.8 °F - 71.6 °F 78% 29.92 in 6.2 mi East 6.9 mph - N/A   Partly Cloudy
2:00 AM 77 °F - 72 °F 81% 29.92 in 37 mi ESE 3.5 mph - -  
2:00 AM 77.0 °F - 71.6 °F 83% 29.92 in 6.2 mi ESE 6.9 mph - N/A   Scattered Clouds
3:00 AM 78.8 °F - 71.6 °F 78% 29.89 in 6.2 mi ESE 3.5 mph - N/A   Mostly Cloudy
4:00 AM 77.0 °F - 71.6 °F 83% 29.92 in 6.2 mi East 5.8 mph - N/A   Mostly Cloudy
5:00 AM 75 °F - 71 °F 85% 29.93 in 37 mi East 5.8 mph - - Rain Light Rain
5:00 AM 75.2 °F - 71.6 °F 89% 29.92 in 6.2 mi ENE 9.2 mph - N/A   Mostly Cloudy
6:00 AM 78.8 °F - 69.8 °F 74% 29.95 in 6.2 mi ESE 4.6 mph - N/A   Mostly Cloudy
7:00 AM 78.8 °F - 71.6 °F 78% 29.95 in 6.2 mi ENE 2.3 mph - N/A   Mostly Cloudy
8:00 AM 81 °F - 71 °F 64% 29.98 in 28 mi East 10.4 mph - - Rain Light Rain
8:00 AM 80.6 °F 83.9 °F 69.8 °F 70% 29.98 in 6.2 mi East 10.4 mph - N/A   Mostly Cloudy
9:00 AM 80.6 °F 84.6 °F 71.6 °F 74% 30.01 in 6.2 mi East 9.2 mph - N/A   Scattered Clouds
10:00 AM 82.4 °F 87.2 °F 71.6 °F 70% 30.01 in 6.2 mi East 10.4 mph - N/A   Partly Cloudy
11:00 AM 84 °F - 72 °F 59% 30.00 in 25 mi East 9.2 mph - -   Partly Cloudy
11:00 AM 84.2 °F 89.6 °F 71.6 °F 66% 29.98 in 6.2 mi East 9.2 mph - N/A   Scattered Clouds
12:00 PM 86.0 °F 91.8 °F 71.6 °F 62% 29.98 in 6.2 mi East 10.4 mph - N/A   Partly Cloudy
1:00 PM 86.0 °F 91.8 °F 71.6 °F 62% 29.95 in 6.2 mi ESE 10.4 mph - N/A   Partly Cloudy
2:00 PM 81 °F - 72 °F 68% 29.94 in 6 mi ESE 12.7 mph - -   Mostly Cloudy
2:00 PM 80.6 °F 84.6 °F 71.6 °F 74% 29.92 in 6.2 mi ESE 12.7 mph - N/A   Mostly Cloudy
3:00 PM 80.6 °F 85.4 °F 73.4 °F 79% 29.92 in 6.2 mi ESE 10.4 mph - N/A Rain Light Rain Showers
4:00 PM 80.6 °F 86.2 °F 75.2 °F 84% 29.92 in 6.2 mi East 8.1 mph - N/A Tornado Funnel Cloud
5:00 PM 81 °F - 74 °F 73% 29.95 in 16 mi ESE 5.8 mph - -   Partly Cloudy
5:00 PM 80.6 °F 85.4 °F 73.4 °F 79% 29.95 in 6.2 mi ESE 5.8 mph - N/A   Mostly Cloudy
6:00 PM 80.6 °F 85.4 °F 73.4 °F 79% 29.95 in 6.2 mi East 8.1 mph - N/A   Partly Cloudy
7:00 PM 80.6 °F 85.4 °F 73.4 °F 79% 29.98 in 6.2 mi East 8.1 mph - N/A   Scattered Clouds
8:00 PM 81 °F - 74 °F 74% 30.00 in 16 mi 3.5 mph - -   Partly Cloudy
8:00 PM 80.6 °F 85.4 °F 73.4 °F 79% 29.98 in 6.2 mi Variable 3.5 mph - N/A   Partly Cloudy
9:00 PM 80.6 °F 85.4 °F 73.4 °F 79% 30.01 in 6.2 mi ENE 6.9 mph - N/A   Mostly Cloudy
10:00 PM 80.6 °F 85.4 °F 73.4 °F 79% 30.01 in 6.2 mi ESE 9.2 mph - N/A   Scattered Clouds
11:00 PM 81 °F - 73 °F 70% 30.01 in 25 mi ESE 8.1 mph - -   Mostly Cloudy
11:00 PM 80.6 °F 85.4 °F 73.4 °F 79% 30.01 in 6.2 mi ESE 8.1 mph - N/A   Mostly Cloudy